Theta_e
306 310 314 315 318 320 321 321 323 322 324 326 327 334 340 343 344 344 346 344 343 344 342 344 343 341 339 338 335 334 333 331 329 327 326 328 331 332 335 340 342 342 343
307 312 312 313 313 314 316 318 320 320 323 326 328 332 330 335 343 346 346 345 344 343 342 341 342 343 341 339 335 334 330 331 331 328 323 320 324 330 337 338 340 340 340
307 308 310 310 311 313 317 317 316 317 318 322 321 321 322 323 326 331 337 342 344 345 344 344 342 343 343 340 337 335 334 330 328 330 324 319 317 321 332 336 339 338 336
305 307 307 308 311 312 317 316 316 316 320 319 317 318 318 316 320 322 329 333 338 340 344 345 344 343 344 342 340 338 336 333 329 328 331 326 323 320 319 329 333 336 336
304 305 307 308 309 310 315 316 313 316 319 316 317 317 316 318 320 321 321 322 327 336 341 342 343 343 342 342 342 339 335 335 334 331 328 328 329 327 321 320 327 329 332
304 305 307 307 308 309 309 309 310 312 315 318 316 315 314 314 315 317 317 320 323 328 333 339 341 340 341 341 342 340 338 335 335 333 331 329 327 327 323 319 322 326 326
303 304 303 304 304 306 308 309 308 308 310 313 315 314 314 314 315 317 317 319 322 325 328 333 338 340 340 341 342 339 338 336 335 334 332 332 330 330 330 323 319 321 322
301 303 304 304 304 305 305 307 308 307 308 311 312 312 315 313 316 317 320 320 322 323 326 330 334 339 340 339 338 339 339 338 336 335 334 332 332 332 330 329 321 315 315
300 300 302 301 301 304 305 307 307 307 307 308 310 312 312 311 313 316 318 319 320 324 326 328 331 334 336 337 336 335 336 332 327 325 325 323 322 334 333 331 327 323 312
300 299 301 302 303 303 304 305 305 305 305 306 306 307 308 310 314 315 315 316 318 321 321 322 324 326 329 329 329 329 330 329 328 328 326 323 323 323 325 328 325 323 318
297 299 300 300 301 302 303 302 303 303 303 304 304 304 305 306 308 312 314 315 317 318 318 319 321 323 325 324 321 322 324 320 321 324 322 323 323 322 326 329 326 324 322
297 298 298 300 300 301 302 302 302 302 302 302 302 302 303 303 304 305 307 310 313 317 317 318 319 321 324 323 320 320 322 317 317 321 321 320 321 326 328 329 326 326 326
297 298 298 298 300 301 302 302 301 301 301 302 301 301 302 302 302 303 304 306 308 312 316 317 317 319 320 323 322 319 321 318 320 321 322 323 323 325 327 330 327 326 328
298 298 296 296 298 300 301 300 301 302 302 302 301 300 300 301 301 302 303 305 306 307 310 316 317 318 321 322 323 322 320 319 322 321 320 320 322 324 327 329 327 326 326
296 297 297 296 297 297 299 300 300 300 300 299 299 299 300 300 301 301 301 302 303 305 307 310 316 317 319 320 321 319 318 316 317 320 322 322 325 326 327 329 325 325 321
297 297 298 298 297 297 298 298 298 297 297 297 298 298 299 299 299 300 300 301 302 304 305 308 311 317 320 310 308 311 317 319 321 321 325 329 325 321 317 317 317 320 317
296 297 296 296 296 296 297 295 296 297 296 296 296 297 298 299 299 298 297 298 300 301 302 305 311 314 317 307 305 308 314 315 316 320 324 323 326 318 318 311 310 309 308
295 295 294 295 296 296 296 296 296 295 295 295 296 297 296 297 298 297 297 297 298 298 302 305 309 314 318 307 302 305 311 313 315 321 319 317 314 313 312 311 310 310 309
294 293 295 295 295 295 295 295 294 294 294 294 295 296 297 296 296 296 296 297 298 298 297 300 303 310 315 304 303 307 314 314 317 320 319 317 317 306 306 317 316 314 315
293 294 294 295 294 294 295 293 293 293 293 294 295 296 296 296 296 297 296 297 297 297 299 301 302 307 312 303 303 305 312 312 317 318 317 310 314 300 303 313 313 311 311
295 295 294 293 293 294 293 292 292 291 293 295 295 296 296 297 297 298 298 297 296 297 300 301 302 307 311 312 301 299 310 314 317 316 315 313 300 299 300 305 311 308 312
294 293 291 291 292 292 292 290 290 293 294 294 295 295 297 298 299 299 298 297 296 296 297 298 300 306 314 306 299 299 300 310 317 315 314 310 298 297 297 304 296 296 304
292 292 290 290 291 291 291 290 291 293 294 293 293 295 298 300 300 298 297 296 295 295 296 298 299 304 314 313 300 299 301 303 315 316 310 299 295 294 295 295 295 298 308
290 291 290 289 288 290 291 291 292 292 292 292 294 296 298 297 297 297 298 296 295 295 297 299 302 303 311 313 309 307 307 304 306 302 300 300 299 300 300 299 298 304 304
290 290 289 289 289 290 289 290 291 292 291 292 293 295 298 296 296 297 297 297 297 296 297 301 302 300 303 299 298 308 308 308 304 303 304 303 302 302 303 303 303 303 303
291 289 289 288 288 289 288 289 291 291 291 290 293 295 297 296 296 295 295 294 294 294 294 295 300 301 297 294 294 297 299 297 298 303 303 301 303 303 303 304 304 306 306
Wind_Speed
3 6 9 12 9 9 9 9 9 5 2 4 3 3 3 3 4 4 5 7 7 9 8 10 10 9 12 12 11 10 11 10 5 3 4 4 6 5 6 6 9 9 9
7 7 9 9 9 8 8 8 8 8 5 4 2 2 0 2 3 4 5 6 6 9 11 11 13 12 12 15 11 12 7 8 8 10 1 4 6 4 7 8 9 10 7
11 7 9 8 8 8 7 8 7 7 5 5 3 3 3 3 3 2 2 5 8 8 10 13 13 16 12 12 14 15 18 14 6 12 6 3 6 2 4 9 9 8 4
5 6 8 8 9 7 8 7 6 5 4 4 4 3 2 2 3 3 3 5 7 11 12 12 13 14 12 15 13 13 15 17 14 4 11 4 4 5 2 3 5 6 7
9 8 8 8 6 7 7 6 6 5 4 3 4 3 3 4 4 4 7 6 6 9 13 13 14 15 12 17 16 13 14 15 15 14 7 12 4 3 3 4 4 1 4
8 7 7 6 6 5 7 7 7 4 4 4 4 5 6 6 4 4 5 5 7 7 11 12 12 15 15 16 17 16 17 15 15 13 14 12 12 10 4 1 3 6 3
6 5 5 3 3 4 3 4 4 2 4 5 6 6 7 6 7 7 5 5 6 7 11 12 10 11 15 16 16 18 18 15 14 17 14 15 15 14 10 4 3 4 3
6 7 8 8 6 7 6 5 6 7 8 8 9 8 8 5 5 6 5 5 5 6 10 12 13 13 14 14 15 16 15 14 14 23 7 6 11 13 11 12 6 1 1
8 9 7 5 5 6 7 7 5 7 8 8 6 7 7 7 7 8 6 5 6 6 7 11 15 14 14 14 11 10 14 11 6 7 6 7 3 14 8 9 8 8 6
8 5 4 6 8 7 9 11 10 11 11 13 12 10 11 12 10 7 8 7 7 6 7 7 11 16 14 11 9 8 7 9 7 5 9 8 12 9 16 11 6 5 5
7 8 8 7 7 7 8 7 8 8 8 7 8 9 10 11 10 9 9 9 8 8 7 7 8 12 14 8 7 8 9 8 9 9 10 14 12 11 10 12 4 4 5
7 8 7 7 7 7 6 5 4 5 4 5 7 10 11 12 11 10 10 9 11 12 8 7 8 9 11 8 8 9 10 11 8 9 11 12 9 11 16 11 8 7 5
8 7 6 5 4 3 4 4 5 6 6 8 11 13 14 13 13 13 13 10 11 11 11 9 9 9 11 11 12 9 9 11 11 10 14 14 13 13 13 11 7 5 5
5 3 3 2 3 4 5 6 9 12 13 16 15 16 15 14 14 15 13 11 13 13 10 10 11 10 9 11 12 12 11 11 12 12 12 13 12 19 17 11 7 6 7
6 5 6 5 5 6 7 10 13 15 14 14 15 14 14 14 14 14 15 14 15 14 12 9 11 12 9 8 9 8 10 10 7 7 7 11 11 14 15 8 8 9 6
6 6 5 5 6 9 12 16 16 13 14 14 14 15 16 15 15 13 14 16 16 9 8 7 8 11 7 8 8 4 4 6 8 10 10 10 13 14 16 14 15 13 8
5 5 5 7 9 12 14 14 14 13 14 14 15 16 16 15 14 14 15 16 14 11 13 9 7 11 11 7 7 1 2 8 12 13 7 3 3 10 10 12 13 10 10
6 6 6 9 12 13 12 13 13 13 14 15 16 15 14 15 14 14 15 14 14 13 6 7 8 7 8 12 10 10 3 8 10 14 11 7 7 6 10 9 7 6 6
5 6 7 11 13 13 13 14 15 14 15 15 15 14 14 15 15 15 14 13 12 9 6 9 10 9 8 12 10 9 4 5 11 9 10 10 9 10 15 10 8 7 3
5 10 9 12 13 15 13 14 15 14 15 14 15 15 15 16 16 16 14 12 12 13 10 12 12 14 9 13 12 1 1 6 6 6 4 11 11 13 14 9 8 7 4
11 13 13 14 14 14 13 14 15 14 14 15 15 16 16 16 16 16 13 11 10 11 12 10 9 8 9 11 15 11 5 5 7 9 7 6 16 13 13 11 7 5 6
15 15 15 13 13 13 12 15 15 15 15 15 15 16 17 14 13 16 13 10 9 10 11 7 8 6 4 11 13 13 8 17 14 13 8 7 15 13 13 8 11 10 7
14 15 14 15 13 12 12 15 15 15 14 15 16 17 17 15 10 13 12 7 7 7 8 7 6 5 3 5 12 13 8 11 13 11 11 15 13 13 8 9 10 9 3
14 13 14 15 16 13 13 13 14 14 14 15 16 15 15 11 11 10 6 5 5 6 7 7 4 2 2 5 5 4 2 8 3 13 9 9 10 7 8 6 4 3 3
12 12 13 13 15 15 14 14 13 13 14 14 14 13 6 8 9 8 3 4 4 6 6 4 2 2 3 6 5 9 5 6 7 11 7 7 5 4 4 1 3 3 3
12 13 14 14 14 15 15 15 13 13 13 14 12 10 5 5 5 5 4 5 9 8 10 8 4 2 5 5 12 2 7 7 14 6 8 4 5 5 5 4 3 2 3
Wind_Direction
313 41 78 100 93 65 68 73 106 128 89 47 41 21 1 330 313 262 250 235 218 236 232 238 236 227 228 220 209 216 214 230 201 180 265 252 236 239 238 246 238 232 231
82 51 85 90 92 107 108 94 92 91 85 97 118 102 83 306 271 293 279 270 242 231 225 221 238 229 232 234 212 207 214 229 191 223 139 252 256 249 225 223 230 224 209
131 121 90 95 93 89 94 88 81 78 73 80 47 22 21 12 5 300 272 274 273 251 232 235 233 240 232 229 227 218 218 230 216 210 161 199 230 217 214 218 212 220 204
103 100 100 97 109 112 115 103 90 73 78 78 86 110 170 221 235 249 257 277 277 281 271 245 242 235 241 242 231 233 225 221 226 204 231 207 149 211 280 281 225 201 217
127 121 124 123 129 126 127 127 121 124 165 159 154 153 211 238 255 277 290 285 272 267 267 264 254 246 233 244 244 229 228 226 225 221 200 225 222 235 171 219 232 202 214
123 128 139 128 138 150 152 158 151 168 176 180 191 210 230 254 277 275 285 283 296 289 279 263 257 259 245 239 243 241 236 227 228 222 217 215 211 209 184 186 225 208 231
127 126 125 129 159 185 199 190 174 235 256 237 231 235 235 238 256 266 255 279 288 296 290 279 260 258 260 242 238 240 239 226 229 229 225 223 225 221 217 155 196 197 231
182 191 199 201 215 220 221 215 219 231 231 233 237 235 235 229 232 230 245 254 244 271 294 291 277 265 261 266 253 245 246 238 230 226 231 280 265 222 208 203 156 95 233
216 219 231 232 241 218 230 221 252 280 297 287 271 255 246 242 239 246 238 241 258 263 281 298 292 273 263 262 262 258 257 238 195 172 165 236 302 278 229 230 206 176 180
244 280 341 18 28 38 49 51 42 37 23 19 19 5 347 338 317 294 260 250 256 259 273 285 292 286 270 249 237 233 216 214 227 220 209 206 265 269 273 228 186 166 145
76 72 61 52 61 51 44 40 31 19 7 1 346 341 332 332 333 327 314 298 282 265 265 267 279 284 285 255 230 215 201 180 179 180 192 206 205 225 238 223 195 147 150
75 66 57 53 41 35 27 20 357 345 319 307 316 315 309 304 302 302 304 306 310 299 273 266 268 277 282 250 229 213 191 172 179 191 191 193 209 240 191 193 191 173 153
77 69 50 47 45 7 333 312 298 290 303 311 308 304 297 295 295 292 290 289 299 305 297 270 263 265 271 264 238 219 212 207 211 183 177 172 169 112 228 215 196 127 161
66 80 50 2 302 283 291 309 317 318 311 308 302 300 295 292 291 291 291 289 291 291 300 286 273 263 261 261 253 234 220 220 220 186 173 170 172 134 224 199 173 169 172
15 5 351 334 333 347 336 315 303 303 311 308 301 294 293 287 285 288 288 284 280 276 274 286 296 263 255 261 261 243 216 208 211 192 200 199 194 188 185 159 167 168 172
340 330 327 349 335 314 311 311 313 313 310 302 300 301 295 292 284 285 290 288 282 271 265 269 287 273 253 261 273 312 330 308 305 237 237 229 178 171 156 151 147 157 152
313 311 338 320 307 313 315 309 306 308 304 301 302 299 298 298 294 290 288 285 283 284 279 256 261 271 271 215 197 282 308 283 278 285 261 216 151 140 140 134 135 138 144
334 332 307 309 313 314 308 304 307 305 308 301 294 292 293 295 296 291 290 287 277 277 267 292 259 250 262 249 151 132 297 280 266 281 220 152 151 156 127 120 123 137 154
322 295 294 311 311 311 310 310 310 308 298 290 291 293 292 291 289 283 281 287 296 291 277 279 267 274 246 231 243 148 197 291 280 242 207 141 157 157 124 126 128 142 152
291 310 314 317 316 313 313 308 303 296 295 300 300 298 294 283 278 274 274 276 283 279 266 263 243 238 238 207 219 197 46 289 273 209 183 170 151 147 131 130 143 140 155
329 328 325 318 315 314 310 303 299 296 298 298 294 287 284 280 276 276 265 263 269 282 262 260 282 255 221 205 190 146 190 190 234 178 178 162 136 134 125 124 130 142 143
334 329 320 317 318 313 311 300 297 300 299 294 291 288 285 281 277 270 260 245 256 266 277 246 265 263 217 161 187 173 210 158 197 185 169 143 135 135 128 125 136 130 122
326 325 318 316 318 316 309 299 300 304 304 304 297 292 292 295 295 294 259 230 241 252 264 231 241 277 177 162 177 169 166 155 199 164 145 132 125 120 101 122 136 135 127
326 320 320 321 318 315 309 302 306 308 304 298 296 298 303 304 308 305 261 227 239 250 265 223 226 346 344 154 133 94 101 117 154 100 105 121 114 110 122 115 133 142 166
324 325 322 320 317 319 316 314 311 311 308 305 299 301 300 305 314 318 286 243 240 247 251 221 145 72 9 13 315 134 165 148 146 113 108 114 99 111 112 182 154 160 180
335 337 332 324 323 322 318 316 318 319 310 302 301 304 294 312 313 321 321 261 271 290 275 257 241 114 124 9 12 174 142 162 136 103 126 113 127 145 165 159 111 173 203